,,PA_Meas_PMT16A,,PR_Meas_QMR101_102,,RH_Meas_QMH101,,SR_Meas_QMS101,,TA_Meas_QMH101,,GenWind,,GenWind,
time,status,PA,status,PR,status,RH,status,SR,status,TA,status,DirAvg,status,SpdAvg,
2009-10-03, 00:00:04,VALID,918.514,VALID,0,VALID,94.8124,VALID,0,VALID,20.5578,VALID,344,VALID,0,
2009-10-03, 00:01:04,VALID,918.522,VALID,0,VALID,94.5837,VALID,0,VALID,20.5188,VALID,344,VALID,0.636328,
2009-10-03, 00:02:04,VALID,918.512,VALID,0,VALID,94.9496,VALID,0,VALID,20.4993,VALID,344,VALID,1.2043,
2009-10-03, 00:03:04,VALID,918.504,VALID,0,VALID,95.0411,VALID,0,VALID,20.4798,VALID,344,VALID,1.15,
2009-10-03, 00:04:04,VALID,918.496,VALID,0,VALID,95.2775,VALID,0,VALID,20.4408,VALID,344,VALID,1.23047,
2009-10-03, 00:05:04,VALID,918.492,VALID,0,VALID,95.5824,VALID,0,VALID,20.4213,VALID,344,VALID,1.19141,
2009-10-03, 00:06:04,VALID,918.461,VALID,0,VALID,95.651,VALID,0,VALID,20.4018,VALID,344,VALID,0.990234,
2009-10-03, 00:07:04,VALID,918.431,VALID,0,VALID,95.7654,VALID,0,VALID,20.4018,VALID,344,VALID,1.03008,
2009-10-03, 00:08:04,VALID,918.432,VALID,0,VALID,95.9559,VALID,0,VALID,20.4018,VALID,344,VALID,1.13867,
2009-10-03, 00:09:04,VALID,918.399,VALID,0,VALID,96.0627,VALID,0,VALID,20.4228,VALID,344,VALID,1.08828,
2009-10-03, 00:10:04,VALID,918.401,VALID,0,VALID,96.1084,VALID,0,VALID,20.4228,VALID,344,VALID,1.04961,
2009-10-03, 00:11:04,VALID,918.382,VALID,0,VALID,96.1999,VALID,0,VALID,20.4033,VALID,344,VALID,0.746875,
2009-10-03, 00:12:04,VALID,918.345,VALID,0,VALID,96.2533,VALID,0,VALID,20.4018,VALID,344,VALID,0.947266,
2009-10-03, 00:13:04,VALID,918.344,VALID,0,VALID,96.3295,VALID,0,VALID,20.4018,VALID,344,VALID,0.790234,
2009-10-03, 00:14:04,VALID,918.297,VALID,0,VALID,96.4286,VALID,0,VALID,20.4018,VALID,344,VALID,0.887891,
2009-10-03, 00:15:04,VALID,918.29,VALID,0,VALID,96.4591,VALID,0,VALID,20.3823,VALID,344,VALID,0.932031,
2009-10-03, 00:16:04,VALID,918.267,VALID,0,VALID,96.5277,VALID,0,VALID,20.3823,VALID,344,VALID,0.605078,
2009-10-03, 00:17:04,VALID,918.237,VALID,0,VALID,96.5277,VALID,0,VALID,20.3838,VALID,344,VALID,0.619141,
2009-10-03, 00:18:04,VALID,918.218,VALID,0,VALID,96.5734,VALID,0,VALID,20.3823,VALID,344,VALID,0.727734,
2009-10-03, 00:19:04,VALID,918.192,VALID,0,VALID,96.5887,VALID,0,VALID,20.3823,VALID,344,VALID,0.369531,
2009-10-03, 00:20:04,VALID,918.201,VALID,0,VALID,96.6115,VALID,0,VALID,20.4033,VALID,344,VALID,0.564453,
2009-10-03, 00:21:04,VALID,918.212,VALID,0,VALID,96.6344,VALID,0,VALID,20.3823,VALID,344,VALID,0.337109,
2009-10-03, 00:22:04,VALID,918.208,VALID,0,VALID,96.6954,VALID,0,VALID,20.4018,VALID,344,VALID,0.808203,
2009-10-03, 00:23:04,VALID,918.232,VALID,0,VALID,96.6268,VALID,0,VALID,20.4033,VALID,344,VALID,0.474219,
2009-10-03, 00:24:04,VALID,918.229,VALID,0,VALID,96.6802,VALID,0,VALID,20.4228,VALID,344,VALID,0.543359,
2009-10-03, 00:25:04,VALID,918.223,VALID,0,VALID,96.7107,VALID,0,VALID,20.4228,VALID,344,VALID,0.430078,
2009-10-03, 00:26:04,VALID,918.186,VALID,0,VALID,96.7564,VALID,0,VALID,20.4618,VALID,344,VALID,0.512109,
2009-10-03, 00:27:04,VALID,918.164,VALID,0,VALID,96.7259,VALID,0,VALID,20.4813,VALID,344,VALID,0.333203,
2009-10-03, 00:28:04,VALID,918.146,VALID,0,VALID,96.6954,VALID,0,VALID,20.4618,VALID,344,VALID,0.427344,
2009-10-03, 00:29:04,VALID,918.092,VALID,0,VALID,96.7259,VALID,0,VALID,20.5009,VALID,344,VALID,0.3125,
2009-10-03, 00:30:04,VALID,918.093,VALID,0,VALID,96.7107,VALID,0,VALID,20.5399,VALID,344,VALID,0.313281,
2009-10-03, 00:31:04,VALID,918.088,VALID,0,VALID,96.6268,VALID,0,VALID,20.5204,VALID,344,VALID,0.616797,
2009-10-03, 00:32:04,VALID,918.083,VALID,0,VALID,96.6192,VALID,0,VALID,20.5204,VALID,344,VALID,0.688672,
2009-10-03, 00:33:04,VALID,918.09,VALID,0,VALID,96.5887,VALID,0,VALID,20.5594,VALID,344,VALID,0.885156,
2009-10-03, 00:34:04,VALID,918.099,VALID,0,VALID,96.4819,VALID,0,VALID,20.5399,VALID,344,VALID,1.05391,
2009-10-03, 00:35:04,VALID,918.126,VALID,0,VALID,96.4667,VALID,0,VALID,20.5204,VALID,344,VALID,0.825781,
2009-10-03, 00:36:04,VALID,918.111,VALID,0,VALID,96.4133,VALID,0,VALID,20.5204,VALID,344,VALID,0.879687,
2009-10-03, 00:37:04,VALID,918.113,VALID,0,VALID,96.3905,VALID,0,VALID,20.5009,VALID,344,VALID,0.94375,
2009-10-03, 00:38:04,VALID,918.116,VALID,0,VALID,96.421,VALID,0,VALID,20.5009,VALID,344,VALID,0.644141,
2009-10-03, 00:39:04,VALID,918.114,VALID,0,VALID,96.4133,VALID,0,VALID,20.4798,VALID,344,VALID,0.753906,
2009-10-03, 00:40:04,VALID,918.117,VALID,0,VALID,96.4133,VALID,0,VALID,20.4813,VALID,344,VALID,0.584375,
2009-10-03, 00:41:04,VALID,918.121,VALID,0,VALID,96.4057,VALID,0,VALID,20.4798,VALID,344,VALID,0.604297,
2009-10-03, 00:42:04,VALID,918.105,VALID,0,VALID,96.4133,VALID,0,VALID,20.4813,VALID,344,VALID,0.486719,
2009-10-03, 00:43:04,VALID,918.093,VALID,0,VALID,96.3524,VALID,0,VALID,20.4618,VALID,344,VALID,0.536328,
2009-10-03, 00:44:04,VALID,918.071,VALID,0,VALID,96.3447,VALID,0,VALID,20.4813,VALID,344,VALID,0.896094,
2009-10-03, 00:45:04,VALID,918.038,VALID,0,VALID,96.3066,VALID,0,VALID,20.4618,VALID,344,VALID,0.54375,
2009-10-03, 00:46:04,VALID,918.013,VALID,0,VALID,96.3219,VALID,0,VALID,20.4618,VALID,344,VALID,0.351563,
2009-10-03, 00:47:04,VALID,918.019,VALID,0,VALID,96.3829,VALID,0,VALID,20.4813,VALID,344,VALID,0.046875,
2009-10-03, 00:48:04,VALID,918.005,VALID,0,VALID,96.3066,VALID,0,VALID,20.4813,VALID,344,VALID,0,
2009-10-03, 00:49:04,VALID,918.017,VALID,0,VALID,96.3371,VALID,0,VALID,20.4813,VALID,344,VALID,0.138281,
2009-10-03, 00:50:04,VALID,917.999,VALID,0,VALID,96.3981,VALID,0,VALID,20.4798,VALID,344,VALID,0,
2009-10-03, 00:51:04,VALID,918.007,VALID,0,VALID,96.3142,VALID,0,VALID,20.5009,VALID,344,VALID,0.249609,
2009-10-03, 00:52:04,VALID,918.005,VALID,0,VALID,96.2609,VALID,0,VALID,20.5009,VALID,344,VALID,0.43125,
2009-10-03, 00:53:04,VALID,917.991,VALID,0,VALID,96.238,VALID,0,VALID,20.5009,VALID,344,VALID,0.214453,
2009-10-03, 00:54:04,VALID,917.973,VALID,0,VALID,96.1618,VALID,0,VALID,20.5009,VALID,344,VALID,0.307031,
2009-10-03, 00:55:04,VALID,917.961,VALID,0,VALID,96.1999,VALID,0,VALID,20.4813,VALID,344,VALID,0.361328,
2009-10-03, 00:56:04,VALID,917.949,VALID,0,VALID,96.2075,VALID,0,VALID,20.5009,VALID,344,VALID,0.0121094,
2009-10-03, 00:57:04,VALID,917.877,VALID,0,VALID,96.2151,VALID,0,VALID,20.5009,VALID,344,VALID,0,
2009-10-03, 00:58:04,VALID,917.86,VALID,0,VALID,96.2456,VALID,0,VALID,20.5009,VALID,344,VALID,0.0867188,
2009-10-03, 00:59:04,VALID,917.807,VALID,0,VALID,96.238,VALID,0,VALID,20.5009,VALID,344,VALID,0.487891,
2009-10-03, 01:00:04,VALID,917.838,VALID,0,VALID,96.2456,VALID,0,VALID,20.5204,VALID,344,VALID,0.453516,
2009-10-03, 01:01:04,VALID,917.846,VALID,0,VALID,96.2609,VALID,0,VALID,20.5009,VALID,344,VALID,0.577734,
2009-10-03, 01:02:04,VALID,917.859,VALID,0,VALID,96.2761,VALID,0,VALID,20.4813,VALID,344,VALID,0.332422,
2009-10-03, 01:03:04,VALID,917.881,VALID,0,VALID,96.36,VALID,0,VALID,20.4813,VALID,344,VALID,0.01875,
2009-10-03, 01:04:04,VALID,917.89,VALID,0,VALID,96.3829,VALID,0,VALID,20.5009,VALID,344,VALID,0.505078,
2009-10-03, 01:05:04,VALID,917.909,VALID,0,VALID,96.3829,VALID,0,VALID,20.4813,VALID,344,VALID,0.206641,
2009-10-03, 01:06:04,VALID,917.926,VALID,0,VALID,96.2151,VALID,0,VALID,20.4618,VALID,344,VALID,0.614844,
2009-10-03, 01:07:04,VALID,917.933,VALID,0,VALID,96.2304,VALID,0,VALID,20.4423,VALID,344,VALID,0.554297,
2009-10-03, 01:08:04,VALID,917.933,VALID,0,VALID,96.238,VALID,0,VALID,20.4634,VALID,344,VALID,0.310156,
2009-10-03, 01:09:04,VALID,917.905,VALID,0,VALID,96.2837,VALID,0,VALID,20.4423,VALID,344,VALID,0.0644531,
2009-10-03, 01:10:04,VALID,917.907,VALID,0,VALID,96.2609,VALID,0,VALID,20.4634,VALID,344,VALID,0,
2009-10-03, 01:11:04,VALID,917.872,VALID,0,VALID,96.2228,VALID,0,VALID,20.4439,VALID,344,VALID,0.396484,
2009-10-03, 01:12:04,VALID,917.888,VALID,0,VALID,96.1999,VALID,0,VALID,20.4033,VALID,344,VALID,0.312109,
2009-10-03, 01:13:04,VALID,917.834,VALID,0,VALID,96.1999,VALID,0,VALID,20.4228,VALID,344,VALID,0.320313,
2009-10-03, 01:14:04,VALID,917.818,VALID,0,VALID,96.2075,VALID,0,VALID,20.4033,VALID,344,VALID,0.146094,
2009-10-03, 01:15:04,VALID,917.811,VALID,0,VALID,96.3219,VALID,0,VALID,20.4228,VALID,344,VALID,0.0785156,
2009-10-03, 01:16:04,VALID,917.784,VALID,0,VALID,96.2837,VALID,0,VALID,20.4228,VALID,344,VALID,0.000390625,
2009-10-03, 01:17:04,VALID,917.714,VALID,0,VALID,96.2609,VALID,0,VALID,20.4018,VALID,344,VALID,0.137109,
2009-10-03, 01:18:04,VALID,917.699,VALID,0,VALID,96.3447,VALID,0,VALID,20.4423,VALID,344,VALID,0,
2009-10-03, 01:19:04,VALID,917.677,VALID,0,VALID,96.3142,VALID,0,VALID,20.4829,VALID,344,VALID,0,
2009-10-03, 01:20:04,VALID,917.665,VALID,0,VALID,96.3142,VALID,0,VALID,20.4618,VALID,344,VALID,0.380469,
2009-10-03, 01:21:04,VALID,917.648,VALID,0,VALID,96.2228,VALID,0,VALID,20.5024,VALID,344,VALID,0.241406,
2009-10-03, 01:22:04,VALID,917.602,VALID,0,VALID,96.2151,VALID,0,VALID,20.5009,VALID,344,VALID,0,
2009-10-03, 01:23:04,VALID,917.616,VALID,0,VALID,96.1008,VALID,0,VALID,20.5009,VALID,344,VALID,0.158984,
2009-10-03, 01:24:04,VALID,917.608,VALID,0,VALID,96.0169,VALID,0,VALID,20.5009,VALID,344,VALID,0.550781,
2009-10-03, 01:25:04,VALID,917.576,VALID,0,VALID,96.0245,VALID,0,VALID,20.5219,VALID,344,VALID,0.365625,
2009-10-03, 01:26:04,VALID,917.564,VALID,0,VALID,96.055,VALID,0,VALID,20.5204,VALID,344,VALID,0.653125,
2009-10-03, 01:27:04,VALID,917.582,VALID,0,VALID,96.0398,VALID,0,VALID,20.5204,VALID,344,VALID,0.541406,
2009-10-03, 01:28:04,VALID,917.562,VALID,0,VALID,95.9636,VALID,0,VALID,20.5399,VALID,344,VALID,0.521875,
2009-10-03, 01:29:04,VALID,917.583,VALID,0,VALID,96.0245,VALID,0,VALID,20.5399,VALID,344,VALID,0.358984,
2009-10-03, 01:30:04,VALID,917.585,VALID,0,VALID,95.9407,VALID,0,VALID,20.5594,VALID,344,VALID,0.302734,
2009-10-03, 01:31:04,VALID,917.572,VALID,0,VALID,95.8111,VALID,0,VALID,20.5399,VALID,344,VALID,0.404687,
2009-10-03, 01:32:04,VALID,917.587,VALID,0,VALID,95.7958,VALID,0,VALID,20.5399,VALID,344,VALID,0.210156,
2009-10-03, 01:33:04,VALID,917.566,VALID,0,VALID,95.7958,VALID,0,VALID,20.5399,VALID,344,VALID,0.229687,
2009-10-03, 01:34:04,VALID,917.555,VALID,0,VALID,95.7806,VALID,0,VALID,20.5399,VALID,344,VALID,0.0449219,
2009-10-03, 01:35:04,VALID,917.543,VALID,0,VALID,95.8187,VALID,0,VALID,20.5399,VALID,344,VALID,0,
2009-10-03, 01:36:04,VALID,917.572,VALID,0,VALID,95.7272,VALID,0,VALID,20.5594,VALID,344,VALID,0,
2009-10-03, 01:37:04,VALID,917.548,VALID,0,VALID,95.6815,VALID,0,VALID,20.5594,VALID,344,VALID,0,
2009-10-03, 01:38:04,VALID,917.547,VALID,0,VALID,95.6662,VALID,0,VALID,20.5383,VALID,344,VALID,0.160938,
2009-10-03, 01:39:04,VALID,917.57,VALID,0,VALID,95.7501,VALID,0,VALID,20.5789,VALID,344,VALID,0.288281,
2009-10-03, 01:40:04,VALID,917.57,VALID,0,VALID,95.6967,VALID,0,VALID,20.5789,VALID,344,VALID,0.177344,
2009-10-03, 01:41:04,VALID,917.559,VALID,0,VALID,95.6434,VALID,0,VALID,20.5367,VALID,344,VALID,0.046875,
2009-10-03, 01:42:04,VALID,917.547,VALID,0,VALID,95.6053,VALID,0.107441,VALID,20.5594,VALID,344,VALID,0,
2009-10-03, 01:43:04,VALID,917.515,VALID,0,VALID,95.6053,VALID,0.107441,VALID,20.5383,VALID,344,VALID,0,
2009-10-03, 01:44:04,VALID,917.513,VALID,0,VALID,95.5214,VALID,0,VALID,20.5383,VALID,344,VALID,0,
2009-10-03, 01:45:04,VALID,917.502,VALID,0,VALID,95.5824,VALID,0,VALID,20.5188,VALID,344,VALID,0.230078,
2009-10-03, 01:46:04,VALID,917.484,VALID,0,VALID,95.5671,VALID,0,VALID,20.5188,VALID,344,VALID,0.272266,
2009-10-03, 01:47:04,VALID,917.479,VALID,0,VALID,95.5671,VALID,0,VALID,20.5399,VALID,344,VALID,0.0542969,
2009-10-03, 01:48:04,VALID,917.48,VALID,0,VALID,95.5519,VALID,0,VALID,20.5399,VALID,344,VALID,0,
2009-10-03, 01:49:04,VALID,917.498,VALID,0,VALID,95.5138,VALID,0,VALID,20.4798,VALID,344,VALID,0.341406,
2009-10-03, 01:50:04,VALID,917.512,VALID,0,VALID,95.468,VALID,0,VALID,20.4798,VALID,344,VALID,0.278906,
2009-10-03, 01:51:04,VALID,917.526,VALID,0,VALID,95.5748,VALID,0,VALID,20.4798,VALID,344,VALID,0,
2009-10-03, 01:52:04,VALID,917.507,VALID,0,VALID,95.6815,VALID,0,VALID,20.4813,VALID,344,VALID,0,
2009-10-03, 01:53:04,VALID,917.52,VALID,0,VALID,95.7349,VALID,0,VALID,20.4813,VALID,344,VALID,0,
2009-10-03, 01:54:04,VALID,917.53,VALID,0,VALID,95.7958,VALID,0,VALID,20.5009,VALID,344,VALID,0,
2009-10-03, 01:55:04,VALID,917.474,VALID,0,VALID,95.7501,VALID,0,VALID,20.5204,VALID,344,VALID,0.271484,
2009-10-03, 01:56:04,VALID,917.491,VALID,0,VALID,95.6739,VALID,0,VALID,20.5204,VALID,344,VALID,0.375,
2009-10-03, 01:57:04,VALID,917.502,VALID,0,VALID,95.5824,VALID,0,VALID,20.5204,VALID,344,VALID,0.335938,
2009-10-03, 01:58:04,VALID,917.45,VALID,0,VALID,95.4375,VALID,0,VALID,20.5399,VALID,344,VALID,0.283594,
2009-10-03, 01:59:04,VALID,917.439,VALID,0,VALID,95.3689,VALID,0,VALID,20.5399,VALID,344,VALID,0.388672,
2009-10-03, 02:00:04,VALID,917.463,VALID,0,VALID,95.3384,VALID,0,VALID,20.5399,VALID,344,VALID,0.151562,
2009-10-03, 02:01:04,VALID,917.432,VALID,0,VALID,95.3003,VALID,0,VALID,20.5204,VALID,344,VALID,0.207422,
2009-10-03, 02:02:04,VALID,917.403,VALID,0,VALID,95.3079,VALID,0,VALID,20.5414,VALID,344,VALID,0.301562,
2009-10-03, 02:03:04,VALID,917.425,VALID,0,VALID,95.3689,VALID,0,VALID,20.5609,VALID,344,VALID,0.00195313,
2009-10-03, 02:04:04,VALID,917.386,VALID,0,VALID,95.4299,VALID,0,VALID,20.5399,VALID,344,VALID,0.129297,
2009-10-03, 02:05:04,VALID,917.417,VALID,0,VALID,95.4985,VALID,0,VALID,20.5399,VALID,344,VALID,0,
2009-10-03, 02:06:04,VALID,917.423,VALID,0,VALID,95.5367,VALID,0,VALID,20.5594,VALID,344,VALID,0,
2009-10-03, 02:07:04,VALID,917.433,VALID,0,VALID,95.5062,VALID,0,VALID,20.5594,VALID,344,VALID,0,
2009-10-03, 02:08:04,VALID,917.411,VALID,0,VALID,95.5138,VALID,0,VALID,20.5984,VALID,344,VALID,0.115234,
2009-10-03, 02:09:04,VALID,917.432,VALID,0,VALID,95.5138,VALID,0,VALID,20.5984,VALID,344,VALID,0,
2009-10-03, 02:10:04,VALID,917.448,VALID,0,VALID,95.5214,VALID,0,VALID,20.5968,VALID,344,VALID,0,
2009-10-03, 02:11:04,VALID,917.459,VALID,0,VALID,95.4985,VALID,0,VALID,20.6374,VALID,344,VALID,0,
2009-10-03, 02:12:04,VALID,917.441,VALID,0,VALID,95.3537,VALID,0.107441,VALID,20.5968,VALID,344,VALID,0.384766,
2009-10-03, 02:13:04,VALID,917.49,VALID,0,VALID,95.2698,VALID,0,VALID,20.6163,VALID,344,VALID,0.504297,
2009-10-03, 02:14:04,VALID,917.487,VALID,0,VALID,95.0259,VALID,0,VALID,20.5773,VALID,344,VALID,0.572266,
2009-10-03, 02:15:04,VALID,917.486,VALID,0,VALID,95.186,VALID,0,VALID,20.5773,VALID,344,VALID,0.500391,
2009-10-03, 02:16:04,VALID,917.515,VALID,0,VALID,95.3461,VALID,0,VALID,20.5773,VALID,344,VALID,0.383594,
2009-10-03, 02:17:04,VALID,917.539,VALID,0,VALID,95.2622,VALID,0,VALID,20.5773,VALID,344,VALID,0.461328,
2009-10-03, 02:18:04,VALID,917.559,VALID,0,VALID,95.1936,VALID,0,VALID,20.5383,VALID,344,VALID,0.453516,
2009-10-03, 02:19:04,VALID,917.557,VALID,0,VALID,95.2546,VALID,0,VALID,20.4993,VALID,344,VALID,0.4625,
2009-10-03, 02:20:04,VALID,917.611,VALID,0,VALID,95.3384,VALID,0,VALID,20.4813,VALID,344,VALID,0.707812,
2009-10-03, 02:21:04,VALID,917.607,VALID,0,VALID,95.5671,VALID,0,VALID,20.4408,VALID,344,VALID,0.835938,
2009-10-03, 02:22:04,VALID,917.638,VALID,0,VALID,95.6662,VALID,0,VALID,20.4213,VALID,344,VALID,0.684375,
2009-10-03, 02:23:04,VALID,917.605,VALID,0,VALID,95.7882,VALID,0,VALID,20.4228,VALID,344,VALID,0.532031,
2009-10-03, 02:24:04,VALID,917.607,VALID,0,VALID,95.8873,VALID,0,VALID,20.4018,VALID,344,VALID,0.496094,
2009-10-03, 02:25:04,VALID,917.594,VALID,0,VALID,96.0474,VALID,0.107441,VALID,20.3823,VALID,344,VALID,0.375781,
2009-10-03, 02:26:04,VALID,917.557,VALID,0,VALID,96.1008,VALID,0.107441,VALID,20.4213,VALID,344,VALID,0.374609,
2009-10-03, 02:27:04,VALID,917.586,VALID,0,VALID,96.1465,VALID,0,VALID,20.4408,VALID,344,VALID,0.452734,
2009-10-03, 02:28:04,VALID,917.56,VALID,0,VALID,96.0703,VALID,0,VALID,20.4603,VALID,344,VALID,0.465625,
2009-10-03, 02:29:04,VALID,917.539,VALID,0,VALID,96.1236,VALID,0,VALID,20.4798,VALID,344,VALID,0.260938,
2009-10-03, 02:30:04,VALID,917.547,VALID,0,VALID,95.9178,VALID,0,VALID,20.4798,VALID,344,VALID,0.400781,
2009-10-03, 02:31:04,VALID,917.56,VALID,0,VALID,95.8797,VALID,0,VALID,20.4603,VALID,344,VALID,0.648047,
2009-10-03, 02:32:04,VALID,917.566,VALID,0,VALID,95.9559,VALID,0,VALID,20.4603,VALID,344,VALID,0.480469,
2009-10-03, 02:33:04,VALID,917.492,VALID,0,VALID,96.0017,VALID,0,VALID,20.4408,VALID,344,VALID,0.467578,
2009-10-03, 02:34:04,VALID,917.497,VALID,0,VALID,96.0703,VALID,0,VALID,20.4423,VALID,344,VALID,0.225,
2009-10-03, 02:35:04,VALID,917.497,VALID,0,VALID,96.1008,VALID,0,VALID,20.4213,VALID,344,VALID,0.260938,
2009-10-03, 02:36:04,VALID,917.474,VALID,0,VALID,96.2151,VALID,0.107441,VALID,20.4002,VALID,344,VALID,0.704297,
2009-10-03, 02:37:04,VALID,917.481,VALID,0,VALID,96.2837,VALID,0,VALID,20.4423,VALID,344,VALID,0.533984,
2009-10-03, 02:38:04,VALID,917.479,VALID,0,VALID,96.3295,VALID,0,VALID,20.4408,VALID,344,VALID,0.503906,
2009-10-03, 02:39:04,VALID,917.494,VALID,0,VALID,96.3219,VALID,0,VALID,20.4213,VALID,344,VALID,0.654297,
2009-10-03, 02:40:04,VALID,917.5,VALID,0,VALID,96.3447,VALID,0,VALID,20.4408,VALID,344,VALID,0.414453,
2009-10-03, 02:41:04,VALID,917.51,VALID,0,VALID,96.3829,VALID,0,VALID,20.4603,VALID,344,VALID,0.798828,
2009-10-03, 02:42:04,VALID,917.481,VALID,0,VALID,96.2609,VALID,0.107441,VALID,20.4603,VALID,344,VALID,0.583203,
2009-10-03, 02:43:04,VALID,917.508,VALID,0,VALID,96.3447,VALID,0,VALID,20.4798,VALID,344,VALID,0.697266,
2009-10-03, 02:44:04,VALID,917.505,VALID,0,VALID,96.2228,VALID,0,VALID,20.4603,VALID,344,VALID,0.499219,
2009-10-03, 02:45:04,VALID,917.511,VALID,0,VALID,96.3066,VALID,0,VALID,20.4813,VALID,344,VALID,0.236719,
2009-10-03, 02:46:04,VALID,917.521,VALID,0,VALID,96.2914,VALID,0,VALID,20.4798,VALID,344,VALID,0.885156,
2009-10-03, 02:47:04,VALID,917.522,VALID,0,VALID,96.238,VALID,0,VALID,20.4798,VALID,344,VALID,1.17656,
2009-10-03, 02:48:04,VALID,917.515,VALID,0,VALID,96.2837,VALID,0.107441,VALID,20.4798,VALID,344,VALID,0.805859,
2009-10-03, 02:49:04,VALID,917.535,VALID,0,VALID,96.2609,VALID,0,VALID,20.5009,VALID,344,VALID,0.849609,
2009-10-03, 02:50:04,VALID,917.501,VALID,0,VALID,96.1084,VALID,0,VALID,20.4798,VALID,344,VALID,1.59648,
2009-10-03, 02:51:04,VALID,917.525,VALID,0,VALID,96.0855,VALID,0,VALID,20.4408,VALID,344,VALID,1.33633,
2009-10-03, 02:52:04,VALID,917.513,VALID,0,VALID,96.2075,VALID,0,VALID,20.4408,VALID,39,VALID,1.61719,
2009-10-03, 02:53:04,VALID,917.458,VALID,0,VALID,96.116,VALID,0,VALID,20.4408,VALID,38,VALID,1.31602,
2009-10-03, 02:54:04,VALID,917.461,VALID,0,VALID,96.2151,VALID,0.107441,VALID,20.4213,VALID,38,VALID,1.42578,
2009-10-03, 02:55:04,VALID,917.458,VALID,0,VALID,96.3066,VALID,0,VALID,20.4213,VALID,38,VALID,0.637109,
2009-10-03, 02:56:04,VALID,917.469,VALID,0,VALID,96.3295,VALID,0,VALID,20.4213,VALID,38,VALID,0.632031,
2009-10-03, 02:57:04,VALID,917.436,VALID,0,VALID,96.2837,VALID,0,VALID,20.4018,VALID,38,VALID,0.593359,
2009-10-03, 02:58:04,VALID,917.428,VALID,0,VALID,96.2533,VALID,0,VALID,20.4018,VALID,38,VALID,0.89375,
2009-10-03, 02:59:04,VALID,917.444,VALID,0,VALID,96.2304,VALID,0,VALID,20.3628,VALID,38,VALID,1.26719,
2009-10-03, 03:00:04,VALID,917.417,VALID,0,VALID,96.2837,VALID,0,VALID,20.3238,VALID,38,VALID,0.944922,
2009-10-03, 03:01:04,VALID,917.418,VALID,0,VALID,96.2609,VALID,0,VALID,20.3043,VALID,2,VALID,1.11953,
2009-10-03, 03:02:04,VALID,917.396,VALID,0,VALID,96.3371,VALID,0,VALID,20.2848,VALID,2,VALID,1.06172,
2009-10-03, 03:03:04,VALID,917.382,VALID,0,VALID,96.4057,VALID,0,VALID,20.2848,VALID,2,VALID,1.43516,
2009-10-03, 03:04:04,VALID,917.336,VALID,0,VALID,96.4515,VALID,0,VALID,20.2653,VALID,2,VALID,1.0332,
2009-10-03, 03:05:04,VALID,917.34,VALID,0,VALID,96.5201,VALID,0,VALID,20.2653,VALID,2,VALID,0.671094,
2009-10-03, 03:06:04,VALID,917.3,VALID,0,VALID,96.5429,VALID,0,VALID,20.2458,VALID,2,VALID,0.969531,
2009-10-03, 03:07:04,VALID,917.299,VALID,0,VALID,96.6192,VALID,0,VALID,20.2458,VALID,2,VALID,0.454688,
2009-10-03, 03:08:04,VALID,917.296,VALID,0,VALID,96.6268,VALID,0,VALID,20.2863,VALID,2,VALID,0.492578,
2009-10-03, 03:09:04,VALID,917.306,VALID,0,VALID,96.642,VALID,0,VALID,20.2473,VALID,2,VALID,0.698438,
2009-10-03, 03:10:04,VALID,917.311,VALID,0,VALID,96.7793,VALID,0,VALID,20.2863,VALID,2,VALID,0.906641,
2009-10-03, 03:11:04,VALID,917.311,VALID,0,VALID,96.8021,VALID,0,VALID,20.2653,VALID,2,VALID,0.829297,
2009-10-03, 03:12:04,VALID,917.295,VALID,0,VALID,96.764,VALID,0,VALID,20.2863,VALID,2,VALID,0.508203,
2009-10-03, 03:13:04,VALID,917.305,VALID,0,VALID,96.6725,VALID,0,VALID,20.2458,VALID,2,VALID,0.753906,
2009-10-03, 03:14:04,VALID,917.307,VALID,0,VALID,96.8021,VALID,0,VALID,20.2668,VALID,2,VALID,0.803516,
2009-10-03, 03:15:04,VALID,917.279,VALID,0,VALID,96.886,VALID,0,VALID,20.3058,VALID,2,VALID,0.702734,
2009-10-03, 03:16:04,VALID,917.297,VALID,0,VALID,96.8707,VALID,0,VALID,20.3253,VALID,2,VALID,0.766406,
2009-10-03, 03:17:04,VALID,917.232,VALID,0,VALID,96.7107,VALID,0,VALID,20.2653,VALID,2,VALID,0.746094,
2009-10-03, 03:18:04,VALID,917.229,VALID,0,VALID,96.764,VALID,0,VALID,20.2863,VALID,2,VALID,0.717188,
2009-10-03, 03:19:04,VALID,917.195,VALID,0,VALID,96.7183,VALID,0,VALID,20.2668,VALID,2,VALID,1.04062,
2009-10-03, 03:20:04,VALID,917.193,VALID,0,VALID,96.6497,VALID,0,VALID,20.2263,VALID,329,VALID,1.14766,
2009-10-03, 03:21:04,VALID,917.147,VALID,0,VALID,96.7259,VALID,0,VALID,20.2263,VALID,329,VALID,0.838281,
2009-10-03, 03:22:04,VALID,917.137,VALID,0,VALID,96.7259,VALID,0,VALID,20.2473,VALID,329,VALID,0.910156,
2009-10-03, 03:23:04,VALID,917.174,VALID,0,VALID,96.7716,VALID,0,VALID,20.2263,VALID,329,VALID,0.845312,
2009-10-03, 03:24:04,VALID,917.149,VALID,0,VALID,96.8403,VALID,0,VALID,20.2473,VALID,329,VALID,0.900781,
2009-10-03, 03:25:04,VALID,917.165,VALID,0,VALID,96.825,VALID,0,VALID,20.2668,VALID,329,VALID,0.783594,
2009-10-03, 03:26:04,VALID,917.171,VALID,0,VALID,96.8403,VALID,0,VALID,20.2458,VALID,329,VALID,1.025,
2009-10-03, 03:27:04,VALID,917.142,VALID,0,VALID,96.6878,VALID,0,VALID,20.2473,VALID,329,VALID,1.13984,
2009-10-03, 03:28:04,VALID,917.116,VALID,0,VALID,96.764,VALID,0,VALID,20.2473,VALID,329,VALID,1.09336,
2009-10-03, 03:29:04,VALID,917.071,VALID,0,VALID,96.7564,VALID,0,VALID,20.2278,VALID,329,VALID,0.801562,
2009-10-03, 03:30:04,VALID,917.051,VALID,0,VALID,96.8403,VALID,0,VALID,20.2263,VALID,329,VALID,0.741016,
2009-10-03, 03:31:04,VALID,917.024,VALID,0,VALID,96.7335,VALID,0,VALID,20.2473,VALID,329,VALID,0.918359,
2009-10-03, 03:32:04,VALID,916.986,VALID,0,VALID,96.7869,VALID,0,VALID,20.2263,VALID,329,VALID,0.664844,
2009-10-03, 03:33:04,VALID,916.982,VALID,0,VALID,96.7183,VALID,0,VALID,20.2278,VALID,329,VALID,0.901172,
2009-10-03, 03:34:04,VALID,916.968,VALID,0,VALID,96.6878,VALID,0,VALID,20.2083,VALID,329,VALID,1.13203,
2009-10-03, 03:35:04,VALID,916.95,VALID,0,VALID,96.7183,VALID,0,VALID,20.1888,VALID,329,VALID,1.26016,
2009-10-03, 03:36:04,VALID,916.947,VALID,0,VALID,96.7716,VALID,0,VALID,20.2083,VALID,329,VALID,1.12852,
2009-10-03, 03:37:04,VALID,916.916,VALID,0,VALID,96.7564,VALID,0,VALID,20.1888,VALID,20,VALID,1.12852,
2009-10-03, 03:38:04,VALID,916.945,VALID,0,VALID,96.7869,VALID,0.107441,VALID,20.1873,VALID,19,VALID,1.10039,
2009-10-03, 03:39:04,VALID,916.919,VALID,0,VALID,96.8021,VALID,0.107441,VALID,20.2068,VALID,19,VALID,0.598828,
2009-10-03, 03:40:04,VALID,916.902,VALID,0,VALID,96.8326,VALID,0.107441,VALID,20.2068,VALID,19,VALID,1.025,
2009-10-03, 03:41:04,VALID,916.898,VALID,0,VALID,96.8403,VALID,0,VALID,20.2068,VALID,19,VALID,1.00469,
2009-10-03, 03:42:04,VALID,916.899,VALID,0,VALID,96.7945,VALID,0,VALID,20.1857,VALID,19,VALID,1.3875,
2009-10-03, 03:43:04,VALID,916.896,VALID,0,VALID,96.8403,VALID,0,VALID,20.2068,VALID,26,VALID,1.13633,
2009-10-03, 03:44:04,VALID,916.888,VALID,0,VALID,96.8021,VALID,0.107441,VALID,20.2052,VALID,26,VALID,1.12031,
2009-10-03, 03:45:04,VALID,916.91,VALID,0,VALID,96.8021,VALID,0,VALID,20.2068,VALID,26,VALID,0.933594,